Terug naar catalogus

H-2A DEB

ActiefSSO
NORAD 43069·DEBRIS·🇯🇵 Japan

Gelanceerd Dec 23, 2017 vanaf Tanegashima Space Center

Loading…

Volgende Passages (komende 24 uur)

TLE

VersSource: Space-Track

Epoch: Sep 14, 2026, 03:55 UTC

1 43069U 17082E   26257.16328036  .00002736  00000-0  60214-3 0  9995
2 43069  98.2445 323.8326 0022307 211.6593 148.3266 14.58119664459704

Volg H-2A DEB in realtime met AllMySat

Download on the App Store